COSMOS 1275 DEB, 12722

Orbit data source: Space-Track

COSMOS 1275 DEB, 12722 is space debris in LEO originally from a launch on Thu, 04 Jun 1981 UTC launched from the Plesetsk Missile And Space Complex (PKMTR). Debris objects in space refer to the collection of defunct objects orbiting the Earth. Examples of debris include non-operational satellites, rocket bodies, and fragments generated from explosions, collisions, or faulty payload assembly.

Loading next visibility...
Identifier
12722, 1981-053BP
Orbit
LEO
Country
Flag of CISCIS
Related business
Manufacturer
Unknown
Mission
Spacecraft
Bus & Motor
Unknown
Mass
Unknown
Launch date (UTC)
1981-06-04 (45 years ago)
Launch vehicle
Unknown
Launch site
Plesetsk Missile And Space Complex (PKMTR)
Object type
Payload
Rocket body
Debris
Shape & HBR
Unknown shape, 0.1 m
Radar Cross Section
Small (<0.1 m²)

Expand to show TLE details & history
Last TLE update: 10 hours ago

TLE from 10 hours ago
0 COSMOS 1275 DEB
1 12722U 81053BP  26119.24910749  .00000946  00000-0  74850-3 0  9992
2 12722  82.8980 110.0914 0064853 357.7871   2.2996 13.89528993252072
Epoch: 2026-04-29T05:58Z
TLE epoch observation values (Epoch: 2026-04-29T05:58:42.887Z)
Latitude
0.00001°
Longitude
163.19992°
Altitude
885.833 km
Speed
7.433 km/s
True Right ascension
07h 20m 21s
True Declination
0° 00' 00"
Sunlit
Object was in daylight at epoch
Visualization orbit readout
Latitude
Unknown
Longitude
Unknown
Altitude
Unknown
Speed
Unknown
Apparent Right ascension
Unknown
Apparent Declination
Unknown
Sunlit
N/A
Visualization observer readout
Local Sidereal Time
23:09:03
Azimuth
Unknown
Elevation
Unknown
Doppler factor
Unknown
Orbital elements
Apogee altitude
974.791 km
Perigee altitude
880.033 km
Semi-major axis
7,305.549 km
Eccentricity
0.00649
Inclination
82.898°
RAAN
110.0914°
Arg. of periapsis
357.7871°
True anomaly
2.32966°
Mean anomaly
2.2996°
Eccentric anomaly
2.31461°
Mean motion
3.47587 °/min
Orbital period
103.57 mins
BSTAR
0.0007485
Loading maneuver chart data...
Computing Atmospheric mass density...
Loading historical data...
Loading historical data...
Loading historical data...
Loading historical data...
Loading historical data...
Loading historical data...
Loading historical data...

Documentation

Showing up to 5 results
|